Year,Month,Day,Hour,Minute,Value (Times are PST for temperature in C)
2012,07,01,00,00,12.20
2012,07,01,00,01,12.20
2012,07,01,00,02,12.20
2012,07,01,00,03,12.20
2012,07,01,00,04,12.20
2012,07,01,00,05,12.20
2012,07,01,00,06,12.20
2012,07,01,00,07,12.20
2012,07,01,00,08,12.20
2012,07,01,00,09,12.20
2012,07,01,00,10,12.20
2012,07,01,00,11,12.20
2012,07,01,00,12,12.30
2012,07,01,00,13,12.30
2012,07,01,00,14,12.30
2012,07,01,00,15,12.30
2012,07,01,00,16,12.30
2012,07,01,00,17,12.30
2012,07,01,00,18,12.30
2012,07,01,00,19,12.30
2012,07,01,00,20,12.30
2012,07,01,00,21,12.30
2012,07,01,00,22,12.30
2012,07,01,00,23,12.30
2012,07,01,00,24,12.30
2012,07,01,00,25,12.30
2012,07,01,00,26,12.30
2012,07,01,00,27,12.30
2012,07,01,00,28,12.30
2012,07,01,00,29,12.20
2012,07,01,00,30,12.20
2012,07,01,00,31,12.20
2012,07,01,00,32,12.20
2012,07,01,00,33,12.10
2012,07,01,00,34,12.10
2012,07,01,00,35,12.10
2012,07,01,00,36,12.10
2012,07,01,00,37,12.00
2012,07,01,00,38,12.00
2012,07,01,00,39,12.00
2012,07,01,00,40,12.00
2012,07,01,00,41,12.00
2012,07,01,00,42,12.00
2012,07,01,00,43,12.00
2012,07,01,00,44,12.10
2012,07,01,00,45,12.10
2012,07,01,00,46,12.10
2012,07,01,00,47,12.10
2012,07,01,00,48,12.10
2012,07,01,00,49,12.10
2012,07,01,00,50,12.10
2012,07,01,00,51,12.10
2012,07,01,00,52,12.10
2012,07,01,00,53,12.10
2012,07,01,00,54,12.10
2012,07,01,00,55,12.10
2012,07,01,00,56,12.10
2012,07,01,00,57,12.10
2012,07,01,00,58,12.10
2012,07,01,00,59,12.10
2012,07,01,01,00,12.10
2012,07,01,01,01,12.10
2012,07,01,01,02,12.10
2012,07,01,01,03,12.10
2012,07,01,01,04,12.10
2012,07,01,01,05,12.10
2012,07,01,01,06,12.20
2012,07,01,01,07,12.20
2012,07,01,01,08,12.20
2012,07,01,01,09,12.20
2012,07,01,01,10,12.20
2012,07,01,01,11,12.20
2012,07,01,01,12,12.20
2012,07,01,01,13,12.20
2012,07,01,01,14,12.20
2012,07,01,01,15,12.20
2012,07,01,01,16,12.20
2012,07,01,01,17,12.20
2012,07,01,01,18,12.30
2012,07,01,01,19,12.30
2012,07,01,01,20,12.30
2012,07,01,01,21,12.30
2012,07,01,01,22,12.30
2012,07,01,01,23,12.30
2012,07,01,01,24,12.20
2012,07,01,01,25,12.20
2012,07,01,01,26,12.20
2012,07,01,01,27,12.20
2012,07,01,01,28,12.20
2012,07,01,01,29,12.10
2012,07,01,01,30,12.10
2012,07,01,01,31,12.10
2012,07,01,01,32,12.10
2012,07,01,01,33,12.10
2012,07,01,01,34,12.10
2012,07,01,01,35,12.10
2012,07,01,01,36,12.10
2012,07,01,01,37,12.10
2012,07,01,01,38,12.10
2012,07,01,01,39,12.00
2012,07,01,01,40,12.00
2012,07,01,01,41,12.00
2012,07,01,01,42,12.00
2012,07,01,01,43,12.00
2012,07,01,01,44,11.90
2012,07,01,01,45,11.90
2012,07,01,01,46,11.90
2012,07,01,01,47,11.90
2012,07,01,01,48,11.90
2012,07,01,01,49,11.90
2012,07,01,01,50,11.90
2012,07,01,01,51,11.90
2012,07,01,01,52,11.90
2012,07,01,01,53,11.90
2012,07,01,01,54,11.90
2012,07,01,01,55,11.90
2012,07,01,01,56,11.90
2012,07,01,01,57,11.90
2012,07,01,01,58,11.90
2012,07,01,01,59,11.90
2012,07,01,02,00,11.90
2012,07,01,02,01,11.90
2012,07,01,02,02,11.90
2012,07,01,02,03,11.90
2012,07,01,02,04,11.90
2012,07,01,02,05,11.90
2012,07,01,02,06,11.90
2012,07,01,02,07,11.90
2012,07,01,02,08,11.90
2012,07,01,02,09,11.90
2012,07,01,02,10,11.90
2012,07,01,02,11,11.90
2012,07,01,02,12,11.90
2012,07,01,02,13,11.90
2012,07,01,02,14,11.90
2012,07,01,02,15,11.90
2012,07,01,02,16,11.90
2012,07,01,02,17,11.90
2012,07,01,02,18,11.90
2012,07,01,02,19,11.90
2012,07,01,02,20,11.90
2012,07,01,02,21,12.00
2012,07,01,02,22,12.00
2012,07,01,02,23,12.00
2012,07,01,02,24,12.10
2012,07,01,02,25,12.10
2012,07,01,02,26,12.10
2012,07,01,02,27,12.10
2012,07,01,02,28,12.10
2012,07,01,02,29,12.20
2012,07,01,02,30,12.20
2012,07,01,02,31,12.20
2012,07,01,02,32,12.20
2012,07,01,02,33,12.30
2012,07,01,02,34,12.30
2012,07,01,02,35,12.30
2012,07,01,02,36,12.40
2012,07,01,02,37,12.40
2012,07,01,02,38,12.40
2012,07,01,02,39,12.50
2012,07,01,02,40,12.50
2012,07,01,02,41,12.50
2012,07,01,02,42,12.60
2012,07,01,02,43,12.60
2012,07,01,02,44,12.60
2012,07,01,02,45,12.60
2012,07,01,02,46,12.60
2012,07,01,02,47,12.60
2012,07,01,02,48,12.60
2012,07,01,02,49,12.60
2012,07,01,02,50,12.60
2012,07,01,02,51,12.60
2012,07,01,02,52,12.60
2012,07,01,02,53,12.60
2012,07,01,02,54,12.60
2012,07,01,02,55,12.60
2012,07,01,02,56,12.60
2012,07,01,02,57,12.60
2012,07,01,02,58,12.60
2012,07,01,02,59,12.60
2012,07,01,03,00,12.60
2012,07,01,03,01,12.60
2012,07,01,03,02,12.60
2012,07,01,03,06,12.60
2012,07,01,03,07,12.60
2012,07,01,03,08,12.60
2012,07,01,03,09,12.60
2012,07,01,03,10,12.60
2012,07,01,03,11,12.60
2012,07,01,03,12,12.60
2012,07,01,03,13,12.60
2012,07,01,03,14,12.60
2012,07,01,03,15,12.60
2012,07,01,03,16,12.60
2012,07,01,03,17,12.60
2012,07,01,03,18,12.60
2012,07,01,03,19,12.60
2012,07,01,03,20,12.60
2012,07,01,03,21,12.60
2012,07,01,03,22,12.60
2012,07,01,03,23,12.60
2012,07,01,03,24,12.60
2012,07,01,03,25,12.60
2012,07,01,03,26,12.60
2012,07,01,03,27,12.60
2012,07,01,03,28,12.60
2012,07,01,03,29,12.60
2012,07,01,03,30,12.60
2012,07,01,03,31,12.60
2012,07,01,03,32,12.60
2012,07,01,03,33,12.60
2012,07,01,03,34,12.60
2012,07,01,03,35,12.60
2012,07,01,03,36,12.70
2012,07,01,03,37,12.70
2012,07,01,03,38,12.70
2012,07,01,03,39,12.70
2012,07,01,03,40,12.70
2012,07,01,03,41,12.70
2012,07,01,03,42,12.70
2012,07,01,03,43,12.80
2012,07,01,03,44,12.80
2012,07,01,03,45,12.80
2012,07,01,03,46,12.80
2012,07,01,03,47,12.80
2012,07,01,03,48,12.80
2012,07,01,03,49,12.80
2012,07,01,03,50,12.80
2012,07,01,03,51,12.80
2012,07,01,03,52,12.80
2012,07,01,03,53,12.80
2012,07,01,03,54,12.80
2012,07,01,03,55,12.80
2012,07,01,03,56,12.80
2012,07,01,03,57,12.80
2012,07,01,03,58,12.80
2012,07,01,03,59,12.80
2012,07,01,04,00,12.80
2012,07,01,04,01,12.80
2012,07,01,04,02,12.80
2012,07,01,04,03,12.80
2012,07,01,04,04,12.80
2012,07,01,04,05,12.80
2012,07,01,04,06,12.70
2012,07,01,04,07,12.80
2012,07,01,04,08,12.70
2012,07,01,04,09,12.70
2012,07,01,04,10,12.70
2012,07,01,04,11,12.70
2012,07,01,04,12,12.80
2012,07,01,04,13,12.80
2012,07,01,04,14,12.80
2012,07,01,04,15,12.70
2012,07,01,04,16,12.80
2012,07,01,04,17,12.80
2012,07,01,04,18,12.80
2012,07,01,04,19,12.80
2012,07,01,04,20,12.80
2012,07,01,04,21,12.80
2012,07,01,04,22,12.80
2012,07,01,04,23,12.80
2012,07,01,04,24,12.70
2012,07,01,04,25,12.70
2012,07,01,04,26,12.70
2012,07,01,04,27,12.70
2012,07,01,04,28,12.70
2012,07,01,04,29,12.70
2012,07,01,04,30,12.70
2012,07,01,04,31,12.70
2012,07,01,04,32,12.70
2012,07,01,04,33,12.70
2012,07,01,04,34,12.70
2012,07,01,04,35,12.70
2012,07,01,04,36,12.70
2012,07,01,04,37,12.70
2012,07,01,04,38,12.70
2012,07,01,04,39,12.70
2012,07,01,04,40,12.70
2012,07,01,04,41,12.70
2012,07,01,04,42,12.70
2012,07,01,04,43,12.70
2012,07,01,04,44,12.70
2012,07,01,04,45,12.70
2012,07,01,04,46,12.70
2012,07,01,04,47,12.70
2012,07,01,04,48,12.70
2012,07,01,04,49,12.70
2012,07,01,04,50,12.70
2012,07,01,04,51,12.70
2012,07,01,04,52,12.70
2012,07,01,04,53,12.70
2012,07,01,04,54,12.70
2012,07,01,04,55,12.70
2012,07,01,04,56,12.70
2012,07,01,04,57,12.70
2012,07,01,04,58,12.70
2012,07,01,04,59,12.70
2012,07,01,05,00,12.70
2012,07,01,05,01,12.70
2012,07,01,05,02,12.70
2012,07,01,05,03,12.70
2012,07,01,05,04,12.70
2012,07,01,05,05,12.70
2012,07,01,05,06,12.70
2012,07,01,05,07,12.70
2012,07,01,05,08,12.70
2012,07,01,05,09,12.70
2012,07,01,05,10,12.70
2012,07,01,05,11,12.70
2012,07,01,05,12,12.70
2012,07,01,05,13,12.80
2012,07,01,05,14,12.80
2012,07,01,05,15,12.80
2012,07,01,05,16,12.80
2012,07,01,05,17,12.80
2012,07,01,05,18,12.80
2012,07,01,05,19,12.80
2012,07,01,05,20,12.80
2012,07,01,05,21,12.80
2012,07,01,05,22,12.80
2012,07,01,05,23,12.80
2012,07,01,05,24,12.80
2012,07,01,05,25,12.80
2012,07,01,05,26,12.80
2012,07,01,05,27,12.80
2012,07,01,05,28,12.80
2012,07,01,05,29,12.80
2012,07,01,05,30,12.80
2012,07,01,05,31,12.80
2012,07,01,05,32,12.80
2012,07,01,05,33,12.80
2012,07,01,05,34,12.80
2012,07,01,05,35,12.80
2012,07,01,05,36,12.80
2012,07,01,05,37,12.80
2012,07,01,05,38,12.80
2012,07,01,05,39,12.80
2012,07,01,05,40,12.80
2012,07,01,05,41,12.80
2012,07,01,05,42,12.80
2012,07,01,05,43,12.80
2012,07,01,05,44,12.80
2012,07,01,05,45,12.80
2012,07,01,05,46,12.80
2012,07,01,05,47,12.80
2012,07,01,05,48,12.80
2012,07,01,05,49,12.80
2012,07,01,05,50,12.80
2012,07,01,05,51,12.80
2012,07,01,05,52,12.80
2012,07,01,05,53,12.80
2012,07,01,05,54,12.80
2012,07,01,05,55,12.80
2012,07,01,05,56,12.80
2012,07,01,05,57,12.80
2012,07,01,05,58,12.80
2012,07,01,05,59,12.80
2012,07,01,06,00,12.80
2012,07,01,06,01,12.80
2012,07,01,06,02,12.70
2012,07,01,06,03,12.70
2012,07,01,06,04,12.70
2012,07,01,06,05,12.70
2012,07,01,06,06,12.70
2012,07,01,06,07,12.70
2012,07,01,06,08,12.70
2012,07,01,06,09,12.70
2012,07,01,06,10,12.70
2012,07,01,06,11,12.70
2012,07,01,06,12,12.70
2012,07,01,06,13,12.70
2012,07,01,06,14,12.70
2012,07,01,06,15,12.70
2012,07,01,06,16,12.70
2012,07,01,06,17,12.70
2012,07,01,06,18,12.70
2012,07,01,06,19,12.70
2012,07,01,06,20,12.70
2012,07,01,06,21,12.70
2012,07,01,06,22,12.70
2012,07,01,06,23,12.80
2012,07,01,06,24,12.80
2012,07,01,06,25,12.80
2012,07,01,06,26,12.80
2012,07,01,06,27,12.80
2012,07,01,06,28,12.80
2012,07,01,06,29,12.80
2012,07,01,06,30,12.80
2012,07,01,06,31,12.80
2012,07,01,06,32,12.80
2012,07,01,06,33,12.80
2012,07,01,06,34,12.80
2012,07,01,06,35,12.80
2012,07,01,06,36,12.80
2012,07,01,06,37,12.80
2012,07,01,06,38,12.80
2012,07,01,06,39,12.80
2012,07,01,06,40,12.80
2012,07,01,06,41,12.80
2012,07,01,06,42,12.80
2012,07,01,06,43,12.80
2012,07,01,06,44,12.80
2012,07,01,06,45,12.80
2012,07,01,06,46,12.90
2012,07,01,06,47,12.90
2012,07,01,06,48,12.90
2012,07,01,06,49,12.90
2012,07,01,06,50,12.90
2012,07,01,06,51,12.90
2012,07,01,06,52,12.90
2012,07,01,06,53,12.90
2012,07,01,06,54,12.90
2012,07,01,06,55,12.90
2012,07,01,06,56,12.90
2012,07,01,06,57,12.90
2012,07,01,06,58,12.90
2012,07,01,06,59,13.00
2012,07,01,07,00,13.00
2012,07,01,07,01,13.00
2012,07,01,07,02,13.00
2012,07,01,07,03,13.00
2012,07,01,07,04,13.00
2012,07,01,07,05,13.00
2012,07,01,07,06,13.00
2012,07,01,07,07,13.00
2012,07,01,07,08,13.00
2012,07,01,07,09,13.10
2012,07,01,07,10,13.10
2012,07,01,07,11,13.10
2012,07,01,07,12,13.10
2012,07,01,07,13,13.10
2012,07,01,07,14,13.10
2012,07,01,07,15,13.10
2012,07,01,07,16,13.10
2012,07,01,07,17,13.10
2012,07,01,07,18,13.10
2012,07,01,07,19,13.20
2012,07,01,07,20,13.20
2012,07,01,07,21,13.20
2012,07,01,07,22,13.20
2012,07,01,07,23,13.20
2012,07,01,07,24,13.20
2012,07,01,07,25,13.20
2012,07,01,07,26,13.20
2012,07,01,07,27,13.20
2012,07,01,07,28,13.30
2012,07,01,07,29,13.30
2012,07,01,07,30,13.30
2012,07,01,07,31,13.30
2012,07,01,07,32,13.30
2012,07,01,07,33,13.30
2012,07,01,07,34,13.30
2012,07,01,07,35,13.40
2012,07,01,07,36,13.40
2012,07,01,07,37,13.40
2012,07,01,07,38,13.40
2012,07,01,07,39,13.40
2012,07,01,07,40,13.40
2012,07,01,07,41,13.50
2012,07,01,07,42,13.50
2012,07,01,07,43,13.50
2012,07,01,07,44,13.60
2012,07,01,07,45,13.60
2012,07,01,07,46,13.60
2012,07,01,07,47,13.70
2012,07,01,07,48,13.70
2012,07,01,07,49,13.70
2012,07,01,07,50,13.70
2012,07,01,07,51,13.70
2012,07,01,07,52,13.70
2012,07,01,07,53,13.70
2012,07,01,07,54,13.70
2012,07,01,07,55,13.70
2012,07,01,07,56,13.70
2012,07,01,07,57,13.80
2012,07,01,07,58,13.80
2012,07,01,07,59,13.80
2012,07,01,08,00,13.80
2012,07,01,08,01,13.90
2012,07,01,08,02,13.90
2012,07,01,08,03,13.90
2012,07,01,08,04,14.00
2012,07,01,08,05,14.00
2012,07,01,08,06,14.10
2012,07,01,08,07,14.10
2012,07,01,08,08,14.10
2012,07,01,08,09,14.20
2012,07,01,08,10,14.20
2012,07,01,08,11,14.20
2012,07,01,08,12,14.30
2012,07,01,08,13,14.30
2012,07,01,08,14,14.30
2012,07,01,08,15,14.30
2012,07,01,08,16,14.30
2012,07,01,08,17,14.40
2012,07,01,08,18,14.40
2012,07,01,08,19,14.40
2012,07,01,08,20,14.40
2012,07,01,08,21,14.40
2012,07,01,08,22,14.40
2012,07,01,08,23,14.40
2012,07,01,08,24,14.50
2012,07,01,08,25,14.50
2012,07,01,08,26,14.50
2012,07,01,08,27,14.40
2012,07,01,08,28,14.40
2012,07,01,08,29,14.40
2012,07,01,08,30,14.40
2012,07,01,08,31,14.40
2012,07,01,08,32,14.40
2012,07,01,08,33,14.40
2012,07,01,08,34,14.40
2012,07,01,08,35,14.40
2012,07,01,08,36,14.40
2012,07,01,08,37,14.40
2012,07,01,08,38,14.50
2012,07,01,08,39,14.50
2012,07,01,08,40,14.60
2012,07,01,08,41,14.70
2012,07,01,08,42,14.80
2012,07,01,08,43,14.90
2012,07,01,08,44,15.00
2012,07,01,08,45,15.00
2012,07,01,08,46,15.00
2012,07,01,08,47,15.00
2012,07,01,08,48,15.00
2012,07,01,08,49,15.00
2012,07,01,08,50,15.00
2012,07,01,08,51,15.00
2012,07,01,08,52,15.00
2012,07,01,08,53,15.00
2012,07,01,08,54,15.00
2012,07,01,08,55,15.00
2012,07,01,08,56,15.00
2012,07,01,08,57,15.00
2012,07,01,08,58,15.00
2012,07,01,08,59,15.00
2012,07,01,09,00,15.00
2012,07,01,09,01,15.00
2012,07,01,09,02,15.00
2012,07,01,09,03,15.00
2012,07,01,09,04,15.00
2012,07,01,09,05,15.00
2012,07,01,09,06,15.00
2012,07,01,09,07,15.00
2012,07,01,09,08,15.00
2012,07,01,09,09,15.00
2012,07,01,09,10,15.00
2012,07,01,09,11,15.00
2012,07,01,09,12,15.00
2012,07,01,09,13,15.00
2012,07,01,09,14,15.00
2012,07,01,09,15,15.00
2012,07,01,09,16,15.00
2012,07,01,09,17,15.00
2012,07,01,09,18,15.00
2012,07,01,09,19,15.00
2012,07,01,09,20,15.00
2012,07,01,09,21,15.00
2012,07,01,09,22,15.00
2012,07,01,09,23,15.00
2012,07,01,09,24,15.00
2012,07,01,09,25,15.00
2012,07,01,09,26,15.00
2012,07,01,09,27,15.00
2012,07,01,09,28,15.00
2012,07,01,09,29,15.00
2012,07,01,09,30,14.90
2012,07,01,09,31,15.00
2012,07,01,09,32,15.00
2012,07,01,09,33,15.00
2012,07,01,09,34,15.00
2012,07,01,09,35,15.00
2012,07,01,09,36,15.00
2012,07,01,09,37,15.00
2012,07,01,09,38,15.00
2012,07,01,09,39,15.00
2012,07,01,09,40,15.00
2012,07,01,09,41,15.00
2012,07,01,09,42,15.00
2012,07,01,09,43,15.00
2012,07,01,09,44,15.00
2012,07,01,09,45,15.00
2012,07,01,09,46,15.00
2012,07,01,09,47,15.00
2012,07,01,09,48,15.00
2012,07,01,09,49,15.00
2012,07,01,09,50,15.00
2012,07,01,09,51,15.00
2012,07,01,09,52,15.00
2012,07,01,09,53,15.00
2012,07,01,09,54,15.00
2012,07,01,09,55,15.00
2012,07,01,09,56,15.00
2012,07,01,09,57,15.10
2012,07,01,09,58,15.20
2012,07,01,09,59,15.20
2012,07,01,10,00,15.20
2012,07,01,10,01,15.20
2012,07,01,10,02,15.20
2012,07,01,10,03,15.30
2012,07,01,10,04,15.30
2012,07,01,10,05,15.30
2012,07,01,10,06,15.40
2012,07,01,10,07,15.40
2012,07,01,10,08,15.50
2012,07,01,10,09,15.60
2012,07,01,10,10,15.70
2012,07,01,10,11,15.80
2012,07,01,10,12,15.80
2012,07,01,10,13,15.90
2012,07,01,10,14,16.00
2012,07,01,10,15,16.00
2012,07,01,10,16,16.10
2012,07,01,10,17,16.10
2012,07,01,10,18,16.20
2012,07,01,10,19,16.20
2012,07,01,10,20,16.20
2012,07,01,10,21,16.20
2012,07,01,10,22,16.20
2012,07,01,10,23,16.20
2012,07,01,10,24,16.20
2012,07,01,10,25,16.20
2012,07,01,10,26,16.20
2012,07,01,10,27,16.30
2012,07,01,10,28,16.30
2012,07,01,10,29,16.30
2012,07,01,10,30,16.30
2012,07,01,10,31,16.20
2012,07,01,10,32,16.20
2012,07,01,10,33,16.30
2012,07,01,10,34,16.30
2012,07,01,10,35,16.20
2012,07,01,10,36,16.20
2012,07,01,10,37,16.30
2012,07,01,10,38,16.30
2012,07,01,10,39,16.30
2012,07,01,10,40,16.30
2012,07,01,10,41,16.30
2012,07,01,10,42,16.30
2012,07,01,10,43,16.30
2012,07,01,10,44,16.30
2012,07,01,10,45,16.30
2012,07,01,10,46,16.30
2012,07,01,10,47,16.30
2012,07,01,10,48,16.40
2012,07,01,10,49,16.40
2012,07,01,10,50,16.50
2012,07,01,10,51,16.60
2012,07,01,10,52,16.60
2012,07,01,10,53,16.60
2012,07,01,10,54,16.70
2012,07,01,10,55,16.70
2012,07,01,10,56,16.70
2012,07,01,10,57,16.70
2012,07,01,10,58,16.70
2012,07,01,10,59,16.70
2012,07,01,11,00,16.70
2012,07,01,11,01,16.70
2012,07,01,11,02,16.70
2012,07,01,11,03,16.70
2012,07,01,11,04,16.70
2012,07,01,11,05,16.70
2012,07,01,11,06,16.80
2012,07,01,11,07,16.90
2012,07,01,11,08,17.00
2012,07,01,11,09,17.00
2012,07,01,11,10,17.10
2012,07,01,11,11,17.10
2012,07,01,11,12,17.10
2012,07,01,11,13,17.10
2012,07,01,11,14,17.20
2012,07,01,11,15,17.30
2012,07,01,11,16,17.30
2012,07,01,11,17,17.40
2012,07,01,11,18,17.50
2012,07,01,11,19,17.50
2012,07,01,11,20,17.50
2012,07,01,11,21,17.60
2012,07,01,11,22,17.60
2012,07,01,11,23,17.60
2012,07,01,11,24,17.70
2012,07,01,11,25,17.70
2012,07,01,11,26,17.70
2012,07,01,11,27,17.60
2012,07,01,11,28,17.70
2012,07,01,11,29,17.70
2012,07,01,11,30,17.80
2012,07,01,11,31,17.80
2012,07,01,11,32,17.90
2012,07,01,11,33,18.00
2012,07,01,11,34,18.10
2012,07,01,11,35,18.10
2012,07,01,11,36,18.10
2012,07,01,11,37,18.10
2012,07,01,11,38,18.20
2012,07,01,11,39,18.30
2012,07,01,11,40,18.40
2012,07,01,11,41,18.40
2012,07,01,11,42,18.50
2012,07,01,11,43,18.50
2012,07,01,11,44,18.50
2012,07,01,11,45,18.60
2012,07,01,11,46,18.60
2012,07,01,11,47,18.60
2012,07,01,11,48,18.70
2012,07,01,11,49,18.70
2012,07,01,11,50,18.60
2012,07,01,11,51,18.50
2012,07,01,11,52,18.40
2012,07,01,11,53,18.40
2012,07,01,11,54,18.40
2012,07,01,11,55,18.40
2012,07,01,11,56,18.50
2012,07,01,11,57,18.50
2012,07,01,11,58,18.60
2012,07,01,11,59,18.70
2012,07,01,12,00,18.70
2012,07,01,12,01,18.80
2012,07,01,12,02,18.80
2012,07,01,12,03,18.80
2012,07,01,12,04,18.90
2012,07,01,12,05,19.00
2012,07,01,12,06,19.10
2012,07,01,12,07,19.00
2012,07,01,12,08,18.90
2012,07,01,12,09,19.00
2012,07,01,12,10,19.00
2012,07,01,12,11,19.10
2012,07,01,12,12,19.00
2012,07,01,12,13,19.00
2012,07,01,12,14,19.10
2012,07,01,12,15,19.10
2012,07,01,12,16,19.10
2012,07,01,12,17,19.10
2012,07,01,12,18,19.20
2012,07,01,12,19,19.20
2012,07,01,12,20,19.30
2012,07,01,12,21,19.30
2012,07,01,12,22,19.30
2012,07,01,12,23,19.40
2012,07,01,12,24,19.40
2012,07,01,12,25,19.30
2012,07,01,12,26,19.30
2012,07,01,12,27,19.30
2012,07,01,12,28,19.20
2012,07,01,12,29,19.20
2012,07,01,12,30,19.30
2012,07,01,12,31,19.40
2012,07,01,12,32,19.50
2012,07,01,12,33,19.60
2012,07,01,12,34,19.60
2012,07,01,12,35,19.70
2012,07,01,12,36,19.70
2012,07,01,12,37,19.60
2012,07,01,12,38,19.50
2012,07,01,12,39,19.50
2012,07,01,12,40,19.50
2012,07,01,12,41,19.40
2012,07,01,12,42,19.50
2012,07,01,12,43,19.60
2012,07,01,12,44,19.60
2012,07,01,12,45,19.60
2012,07,01,12,46,19.50
2012,07,01,12,47,19.40
2012,07,01,12,48,19.20
2012,07,01,12,49,19.00
2012,07,01,12,50,18.90
2012,07,01,12,51,18.90
2012,07,01,12,52,18.80
2012,07,01,12,53,18.80
2012,07,01,12,54,18.80
2012,07,01,12,55,18.70
2012,07,01,12,56,18.60
2012,07,01,12,57,18.50
2012,07,01,12,58,18.50
2012,07,01,12,59,18.40
2012,07,01,13,00,18.40
2012,07,01,13,01,18.50
2012,07,01,13,02,18.50
2012,07,01,13,03,18.60
2012,07,01,13,04,18.60
2012,07,01,13,05,18.60
2012,07,01,13,06,18.60
2012,07,01,13,07,18.60
2012,07,01,13,08,18.50
2012,07,01,13,09,18.50
2012,07,01,13,10,18.50
2012,07,01,13,11,18.50
2012,07,01,13,12,18.60
2012,07,01,13,13,18.60
2012,07,01,13,14,18.60
2012,07,01,13,15,18.60
2012,07,01,13,16,18.60
2012,07,01,13,17,18.60
2012,07,01,13,18,18.60
2012,07,01,13,19,18.60
2012,07,01,13,20,18.60
2012,07,01,13,21,18.60
2012,07,01,13,22,18.60
2012,07,01,13,23,18.60
2012,07,01,13,24,18.50
2012,07,01,13,25,18.50
2012,07,01,13,26,18.50
2012,07,01,13,27,18.50
2012,07,01,13,28,18.50
2012,07,01,13,29,18.40
2012,07,01,13,30,18.40
2012,07,01,13,31,18.40
2012,07,01,13,32,18.40
2012,07,01,13,33,18.40
2012,07,01,13,34,18.40
2012,07,01,13,35,18.30
2012,07,01,13,36,18.30
2012,07,01,13,37,18.30
2012,07,01,13,38,18.30
2012,07,01,13,39,18.30
2012,07,01,13,40,18.30
2012,07,01,13,41,18.30
2012,07,01,13,42,18.30
2012,07,01,13,43,18.30
2012,07,01,13,44,18.30
2012,07,01,13,45,18.30
2012,07,01,13,46,18.30
2012,07,01,13,47,18.30
2012,07,01,13,48,18.20
2012,07,01,13,49,18.20
2012,07,01,13,50,18.20
2012,07,01,13,51,18.20
2012,07,01,13,52,18.20
2012,07,01,13,53,18.20
2012,07,01,13,54,18.20
2012,07,01,13,55,18.20
2012,07,01,13,56,18.20
2012,07,01,13,57,18.20
2012,07,01,13,58,18.20
2012,07,01,13,59,18.20
2012,07,01,14,00,18.20
2012,07,01,14,01,18.20
2012,07,01,14,02,18.20
2012,07,01,14,03,18.20
2012,07,01,14,04,18.20
2012,07,01,14,05,18.20
2012,07,01,14,06,18.20
2012,07,01,14,07,18.20
2012,07,01,14,08,18.20
2012,07,01,14,09,18.20
2012,07,01,14,10,18.30
2012,07,01,14,11,18.30
2012,07,01,14,12,18.40
2012,07,01,14,13,18.40
2012,07,01,14,14,18.40
2012,07,01,14,15,18.40
2012,07,01,14,16,18.40
2012,07,01,14,17,18.40
2012,07,01,14,18,18.40
2012,07,01,14,19,18.40
2012,07,01,14,20,18.40
2012,07,01,14,21,18.40
2012,07,01,14,22,18.40
2012,07,01,14,23,18.40
2012,07,01,14,24,18.40
2012,07,01,14,25,18.40
2012,07,01,14,26,18.40
2012,07,01,14,27,18.40
2012,07,01,14,28,18.40
2012,07,01,14,29,18.40
2012,07,01,14,30,18.40
2012,07,01,14,31,18.40
2012,07,01,14,32,18.40
2012,07,01,14,33,18.40
2012,07,01,14,34,18.40
2012,07,01,14,35,18.40
2012,07,01,14,36,18.40
2012,07,01,14,37,18.30
2012,07,01,14,38,18.30
2012,07,01,14,39,18.30
2012,07,01,14,40,18.30
2012,07,01,14,41,18.30
2012,07,01,14,42,18.30
2012,07,01,14,43,18.30
2012,07,01,14,44,18.40
2012,07,01,14,45,18.40
2012,07,01,14,46,18.50
2012,07,01,14,47,18.50
2012,07,01,14,48,18.50
2012,07,01,14,49,18.50
2012,07,01,14,50,18.50
2012,07,01,14,51,18.50
2012,07,01,14,52,18.50
2012,07,01,14,53,18.60
2012,07,01,14,54,18.60
2012,07,01,14,55,18.60
2012,07,01,14,56,18.60
2012,07,01,14,57,18.60
2012,07,01,14,58,18.60
2012,07,01,14,59,18.60
2012,07,01,15,00,18.60
2012,07,01,15,01,18.60
2012,07,01,15,02,18.60
2012,07,01,15,03,18.50
2012,07,01,15,04,18.50
2012,07,01,15,05,18.50
2012,07,01,15,06,18.50
2012,07,01,15,07,18.60
2012,07,01,15,08,18.60
2012,07,01,15,09,18.60
2012,07,01,15,10,18.60
2012,07,01,15,11,18.60
2012,07,01,15,12,18.70
2012,07,01,15,13,18.70
2012,07,01,15,14,18.70
2012,07,01,15,15,18.70
2012,07,01,15,16,18.70
2012,07,01,15,17,18.70
2012,07,01,15,18,18.80
2012,07,01,15,19,18.80
2012,07,01,15,20,18.90
2012,07,01,15,21,18.90
2012,07,01,15,22,18.80
2012,07,01,15,23,18.80
2012,07,01,15,24,18.70
2012,07,01,15,25,18.70
2012,07,01,15,26,18.70
2012,07,01,15,27,18.70
2012,07,01,15,28,18.70
2012,07,01,15,29,18.70
2012,07,01,15,30,18.70
2012,07,01,15,31,18.70
2012,07,01,15,32,18.70
2012,07,01,15,33,18.70
2012,07,01,15,34,18.70
2012,07,01,15,35,18.70
2012,07,01,15,36,18.60
2012,07,01,15,37,18.60
2012,07,01,15,38,18.70
2012,07,01,15,39,18.70
2012,07,01,15,40,18.70
2012,07,01,15,41,18.60
2012,07,01,15,42,18.60
2012,07,01,15,43,18.60
2012,07,01,15,44,18.60
2012,07,01,15,45,18.60
2012,07,01,15,46,18.60
2012,07,01,15,47,18.60
2012,07,01,15,48,18.60
2012,07,01,15,49,18.60
2012,07,01,15,50,18.60
2012,07,01,15,51,18.60
2012,07,01,15,52,18.60
2012,07,01,15,53,18.60
2012,07,01,15,54,18.60
2012,07,01,15,55,18.60
2012,07,01,15,56,18.60
2012,07,01,15,57,18.60
2012,07,01,15,58,18.60
2012,07,01,15,59,18.60
2012,07,01,16,00,18.60
2012,07,01,16,01,18.70
2012,07,01,16,02,18.70
2012,07,01,16,03,18.70
2012,07,01,16,04,18.70
2012,07,01,16,05,18.70
2012,07,01,16,06,18.80
2012,07,01,16,07,18.80
2012,07,01,16,08,18.80
2012,07,01,16,09,18.80
2012,07,01,16,10,18.80
2012,07,01,16,11,18.80
2012,07,01,16,12,18.90
2012,07,01,16,13,18.90
2012,07,01,16,14,18.90
2012,07,01,16,15,18.80
2012,07,01,16,16,18.80
2012,07,01,16,17,18.80
2012,07,01,16,18,18.70
2012,07,01,16,19,18.70
2012,07,01,16,20,18.60
2012,07,01,16,21,18.60
2012,07,01,16,22,18.60
2012,07,01,16,23,18.60
2012,07,01,16,24,18.60
2012,07,01,16,25,18.60
2012,07,01,16,26,18.60
2012,07,01,16,27,18.60
2012,07,01,16,28,18.60
2012,07,01,16,29,18.60
2012,07,01,16,30,18.60
2012,07,01,16,31,18.70
2012,07,01,16,32,18.80
2012,07,01,16,33,18.80
2012,07,01,16,34,18.80
2012,07,01,16,35,18.90
2012,07,01,16,36,18.90
2012,07,01,16,37,19.00
2012,07,01,16,38,19.00
2012,07,01,16,39,19.10
2012,07,01,16,40,19.10
2012,07,01,16,41,19.20
2012,07,01,16,42,19.20
2012,07,01,16,43,19.30
2012,07,01,16,44,19.30
2012,07,01,16,45,19.30
2012,07,01,16,46,19.30
2012,07,01,16,47,19.40
2012,07,01,16,48,19.40
2012,07,01,16,49,19.40
2012,07,01,16,50,19.40
2012,07,01,16,51,19.40
2012,07,01,16,52,19.40
2012,07,01,16,53,19.40
2012,07,01,16,54,19.40
2012,07,01,16,55,19.40
2012,07,01,16,56,19.40
2012,07,01,16,57,19.30
2012,07,01,16,58,19.30
2012,07,01,16,59,19.30
2012,07,01,17,00,19.40
2012,07,01,17,01,19.40
2012,07,01,17,02,19.40
2012,07,01,17,03,19.40
2012,07,01,17,04,19.40
2012,07,01,17,05,19.40
2012,07,01,17,06,19.30
2012,07,01,17,07,19.30
2012,07,01,17,08,19.20
2012,07,01,17,09,19.00
2012,07,01,17,10,18.90
2012,07,01,17,11,18.80
2012,07,01,17,12,18.80
2012,07,01,17,13,18.70
2012,07,01,17,14,18.70
2012,07,01,17,15,18.70
2012,07,01,17,16,18.60
2012,07,01,17,17,18.60
2012,07,01,17,18,18.60
2012,07,01,17,19,18.60
2012,07,01,17,20,18.50
2012,07,01,17,21,18.50
2012,07,01,17,22,18.40